Location: Fort Worth, Tx
(32.7431°N, 97.3695°W)
Time: 23:57:27
(UTC-04:00)

DUCHIFAT 1 - Visible Passes

Search period start: 28 March 2023 00:00
Search period end: 07 April 2023 00:00
Orbit: 569 x 586 km, 98.1° (Epoch: 28 March)

Date Brightness Start Highest point End Pass type
(mag) Time Alt. Az. Time Alt. Az. Time Alt. Az.
30 Mar ? 05:22:30 10° NNE 05:22:44 11° NNE 05:22:44 11° NNE visible
31 Mar ? 05:26:37 10° NNE 05:27:04 13° NNE 05:27:04 13° NNE visible
01 Apr ? 05:30:43 10° NNE 05:31:24 14° NNE 05:31:24 14° NNE visible
02 Apr ? 05:34:49 10° NNE 05:35:41 16° NNE 05:35:41 16° NNE visible
03 Apr ? 05:38:53 10° NNE 05:39:58 18° NNE 05:39:58 18° NNE visible
04 Apr ? 05:42:57 10° N 05:44:12 19° N 05:44:12 19° N visible
05 Apr ? 05:47:00 10° N 05:48:26 21° N 05:48:26 21° N visible
06 Apr ? 05:51:02 10° N 05:52:38 23° N 05:52:38 23° N visible
